| time (UTC) | temp C | wind direction | speed KPH | gust KPH | rain 1hr cm | rain 24hr cm | rain mn cm | humidity % | barometer mb |
| 20260505035052 | 13 | 201 | 3.2 | 3.2 | 0.00 | 0.00 | 0.00 | 62 | 1010.0 |
| 20260505034548 | 13 | 209 | 3.2 | 3.2 | 0.00 | 0.00 | 0.00 | 61 | 1010.2 |
| 20260505034045 | 13 | 207 | 3.2 | 4.8 | 0.00 | 0.00 | 0.00 | 61 | 1010.1 |
| 20260505033542 | 13 | 210 | 3.2 | 3.2 | 0.00 | 0.00 | 0.00 | 62 | 1010.1 |
| 20260505033040 | 14 | 218 | 4.8 | 4.8 | 0.00 | 0.00 | 0.00 | 61 | 1010.4 |
| 20260505032538 | 14 | 216 | 3.2 | 3.2 | 0.00 | 0.00 | 0.00 | 60 | 1010.4 |
| 20260505032034 | 14 | 211 | 3.2 | 3.2 | 0.00 | 0.00 | 0.00 | 60 | 1010.3 |
| 20260505031531 | 14 | 207 | 4.8 | 4.8 | 0.00 | 0.00 | 0.00 | 59 | 1010.3 |
| 20260505031027 | 14 | 214 | 4.8 | 4.8 | 0.00 | 0.00 | 0.00 | 60 | 1010.5 |
| 20260505030525 | 14 | 197 | 8.0 | 9.7 | 0.00 | 0.00 | 0.00 | 59 | 1010.3 |
| 20260505030021 | 14 | 202 | 3.2 | 4.8 | 0.00 | 0.00 | 0.00 | 60 | 1010.6 |
| 20260505025517 | 14 | 214 | 4.8 | 4.8 | 0.00 | 0.00 | 0.00 | 59 | 1010.5 |
| 20260505025016 | 14 | 214 | 3.2 | 3.2 | 0.00 | 0.00 | 0.00 | 60 | 1010.8 |
| 20260505024512 | 15 | 215 | 4.8 | 4.8 | 0.00 | 0.00 | 0.00 | 59 | 1010.6 |
| 20260505024009 | 15 | 223 | 4.8 | 4.8 | 0.00 | 0.00 | 0.00 | 58 | 1010.4 |
| 20260505023506 | 15 | 199 | 3.2 | 3.2 | 0.00 | 0.00 | 0.00 | 58 | 1010.5 |
| 20260505023004 | 15 | 224 | 3.2 | 3.2 | 0.00 | 0.00 | 0.00 | 58 | 1010.7 |
| 20260505022501 | 15 | 215 | 4.8 | 4.8 | 0.00 | 0.00 | 0.00 | 58 | 1010.6 |
| 20260505021958 | 15 | 217 | 3.2 | 3.2 | 0.00 | 0.00 | 0.00 | 57 | 1010.6 |
| 20260505021455 | 15 | 209 | 3.2 | 3.2 | 0.00 | 0.00 | 0.00 | 58 | 1010.5 |
| 20260505020950 | 15 | 208 | 3.2 | 3.2 | 0.00 | 0.00 | 0.00 | 57 | 1010.7 |
| 20260505020445 | 15 | 210 | 4.8 | 4.8 | 0.00 | 0.00 | 0.00 | 57 | 1010.6 |
| 20260505015943 | 15 | 224 | 3.2 | 3.2 | 0.00 | 0.00 | 0.00 | 57 | 1010.9 |
| 20260505015440 | 15 | 222 | 4.8 | 4.8 | 0.00 | 0.00 | 0.00 | 57 | 1010.7 |
| 20260505014937 | 15 | 225 | 3.2 | 4.8 | 0.00 | 0.00 | 0.00 | 57 | 1010.5 |
| 20260505014434 | 15 | 192 | 4.8 | 4.8 | 0.00 | 0.00 | 0.00 | 57 | 1010.7 |
| 20260505013931 | 15 | 221 | 1.6 | 3.2 | 0.00 | 0.00 | 0.00 | 57 | 1010.7 |
| 20260505013428 | 15 | 231 | 3.2 | 3.2 | 0.00 | 0.00 | 0.00 | 57 | 1010.8 |
| 20260505012926 | 15 | 220 | 3.2 | 4.8 | 0.00 | 0.00 | 0.00 | 56 | 1010.5 |
| 20260505012424 | 15 | 219 | 3.2 | 3.2 | 0.00 | 0.00 | 0.00 | 56 | 1010.5 |
| 20260505011920 | 16 | 226 | 3.2 | 3.2 | 0.00 | 0.00 | 0.00 | 56 | 1010.5 |
| 20260505011416 | 16 | 229 | 4.8 | 4.8 | 0.00 | 0.00 | 0.00 | 55 | 1010.4 |
| 20260505010913 | 16 | 173 | 4.8 | 8.0 | 0.00 | 0.00 | 0.00 | 55 | 1010.5 |
| 20260505010409 | 16 | 229 | 4.8 | 4.8 | 0.00 | 0.00 | 0.00 | 54 | 1010.5 |
| 20260505005905 | 16 | 218 | 4.8 | 4.8 | 0.00 | 0.00 | 0.00 | 54 | 1010.6 |
| 20260505005402 | 16 | 208 | 4.8 | 8.0 | 0.00 | 0.00 | 0.00 | 53 | 1010.2 |
| 20260505004859 | 16 | 196 | 6.4 | 9.7 | 0.00 | 0.00 | 0.00 | 54 | 1010.1 |
| 20260505004356 | 16 | 223 | 3.2 | 3.2 | 0.00 | 0.00 | 0.00 | 54 | 1010.2 |
| 20260505003853 | 16 | 209 | 4.8 | 8.0 | 0.00 | 0.00 | 0.00 | 54 | 1010.0 |
| 20260505003350 | 16 | 214 | 1.6 | 1.6 | 0.00 | 0.00 | 0.00 | 54 | 1009.9 |
| 20260505002846 | 16 | 214 | 0.0 | 0.0 | 0.00 | 0.00 | 0.00 | 53 | 1009.8 |
| 20260505002343 | 16 | 178 | 3.2 | 3.2 | 0.00 | 0.00 | 0.00 | 53 | 1009.8 |
| 20260505001841 | 17 | 218 | 3.2 | 3.2 | 0.00 | 0.00 | 0.00 | 51 | 1009.8 |
| 20260505001338 | 17 | 214 | 4.8 | 4.8 | 0.00 | 0.00 | 0.00 | 51 | 1009.7 |
| 20260505000835 | 17 | 245 | 3.2 | 3.2 | 0.00 | 0.00 | 0.00 | 51 | 1009.9 |
| 20260505000333 | 17 | 207 | 3.2 | 3.2 | 0.00 | 0.00 | 0.00 | 50 | 1009.7 |
| 20260504235829 | 17 | 213 | 1.6 | 1.6 | 0.00 | 0.00 | 0.00 | 51 | 1009.7 |
| 20260504235327 | 17 | 217 | 1.6 | 3.2 | 0.00 | 0.00 | 0.00 | 51 | 1009.8 |
| 20260504234823 | 17 | 256 | 3.2 | 3.2 | 0.00 | 0.00 | 0.00 | 50 | 1009.2 |
| 20260504234321 | 17 | 274 | 6.4 | 8.0 | 0.00 | 0.00 | 0.00 | 50 | 1009.4 |
| 20260504233817 | 17 | 223 | 1.6 | 3.2 | 0.00 | 0.00 | 0.00 | 51 | 1009.5 |
| 20260504233313 | 17 | 248 | 1.6 | 3.2 | 0.00 | 0.00 | 0.00 | 50 | 1009.4 |
| 20260504232810 | 17 | 220 | 4.8 | 8.0 | 0.00 | 0.00 | 0.00 | 49 | 1009.2 |
| 20260504232307 | 17 | 225 | 1.6 | 1.6 | 0.00 | 0.00 | 0.00 | 48 | 1009.2 |
| 20260504231804 | 18 | 230 | 1.6 | 3.2 | 0.00 | 0.00 | 0.00 | 47 | 1009.2 |
| 20260504231300 | 18 | 243 | 4.8 | 4.8 | 0.00 | 0.00 | 0.00 | 48 | 1009.2 |
| 20260504230756 | 18 | 231 | 1.6 | 1.6 | 0.00 | 0.00 | 0.00 | 46 | 1009.0 |
| 20260504230254 | 18 | 227 | 1.6 | 1.6 | 0.00 | 0.00 | 0.00 | 47 | 1008.8 |
| 20260504225753 | 18 | 231 | 1.6 | 3.2 | 0.00 | 0.00 | 0.00 | 46 | 1008.8 |
| 20260504225249 | 18 | 235 | 4.8 | 4.8 | 0.00 | 0.00 | 0.00 | 46 | 1008.8 |
| 20260504224746 | 18 | 215 | 6.4 | 8.0 | 0.00 | 0.00 | 0.00 | 46 | 1008.8 |
| 20260504224243 | 18 | 126 | 4.8 | 4.8 | 0.00 | 0.00 | 0.00 | 46 | 1008.8 |
| 20260504223740 | 18 | 190 | 4.8 | 8.0 | 0.00 | 0.00 | 0.00 | 45 | 1008.7 |
| 20260504223235 | 18 | 229 | 4.8 | 4.8 | 0.00 | 0.00 | 0.00 | 46 | 1008.8 |
| 20260504222733 | 18 | 234 | 4.8 | 4.8 | 0.00 | 0.00 | 0.00 | 45 | 1009.0 |
| 20260504222229 | 19 | 219 | 3.2 | 4.8 | 0.00 | 0.00 | 0.00 | 44 | 1008.8 |
| 20260504221727 | 18 | 223 | 1.6 | 1.6 | 0.00 | 0.00 | 0.00 | 45 | 1008.7 |
| 20260504221224 | 18 | 249 | 3.2 | 3.2 | 0.00 | 0.00 | 0.00 | 46 | 1008.8 |
| 20260504220720 | 19 | 254 | 3.2 | 3.2 | 0.00 | 0.00 | 0.00 | 44 | 1008.9 |
| 20260504220218 | 19 | 230 | 3.2 | 3.2 | 0.00 | 0.00 | 0.00 | 44 | 1008.8 |
| 20260504215714 | 20 | 248 | 3.2 | 3.2 | 0.00 | 0.00 | 0.00 | 43 | 1008.9 |
| 20260504215212 | 20 | 279 | 8.0 | 9.7 | 0.00 | 0.00 | 0.00 | 42 | 1009.1 |
| 20260504214707 | 20 | 265 | 4.8 | 4.8 | 0.00 | 0.00 | 0.00 | 40 | 1008.8 |
| 20260504214204 | 20 | 248 | 1.6 | 3.2 | 0.00 | 0.00 | 0.00 | 41 | 1008.9 |
| 20260504213701 | 19 | 249 | 4.8 | 4.8 | 0.00 | 0.00 | 0.00 | 41 | 1009.0 |
| 20260504213157 | 20 | 335 | 1.6 | 3.2 | 0.00 | 0.00 | 0.00 | 40 | 1008.7 |
| 20260504212654 | 20 | 306 | 1.6 | 1.6 | 0.00 | 0.00 | 0.00 | 40 | 1009.2 |
| 20260504212150 | 20 | 319 | 3.2 | 3.2 | 0.00 | 0.00 | 0.00 | 40 | 1009.2 |
| 20260504211648 | 20 | 285 | 3.2 | 3.2 | 0.00 | 0.00 | 0.00 | 39 | 1009.1 |
| 20260504211144 | 21 | 257 | 4.8 | 4.8 | 0.00 | 0.00 | 0.00 | 39 | 1009.1 |
| 20260504210642 | 21 | 253 | 3.2 | 3.2 | 0.00 | 0.00 | 0.00 | 39 | 1008.9 |
| 20260504210138 | 21 | 261 | 3.2 | 3.2 | 0.00 | 0.00 | 0.00 | 38 | 1009.0 |
| 20260504205636 | 21 | 265 | 1.6 | 3.2 | 0.00 | 0.00 | 0.00 | 39 | 1009.1 |
| 20260504205133 | 21 | 272 | 4.8 | 4.8 | 0.00 | 0.00 | 0.00 | 40 | 1009.4 |
| 20260504204631 | 21 | 266 | 3.2 | 3.2 | 0.00 | 0.00 | 0.00 | 39 | 1009.2 |
| 20260504204130 | 21 | 254 | 3.2 | 3.2 | 0.00 | 0.00 | 0.00 | 39 | 1009.4 |
| 20260504203628 | 20 | 160 | 4.8 | 9.7 | 0.00 | 0.00 | 0.00 | 39 | 1009.1 |
| 20260504203125 | 20 | 250 | 1.6 | 1.6 | 0.00 | 0.00 | 0.00 | 41 | 1009.4 |
| 20260504202620 | 19 | 342 | 4.8 | 4.8 | 0.00 | 0.00 | 0.00 | 42 | 1009.2 |
| 20260504202117 | 20 | 253 | 4.8 | 8.0 | 0.00 | 0.00 | 0.00 | 41 | 1009.4 |
| 20260504201614 | 20 | 316 | 1.6 | 1.6 | 0.00 | 0.00 | 0.00 | 39 | 1009.1 |
| 20260504201112 | 21 | 199 | 4.8 | 4.8 | 0.00 | 0.00 | 0.00 | 39 | 1009.5 |
| 20260504200609 | 21 | 256 | 3.2 | 4.8 | 0.00 | 0.00 | 0.00 | 40 | 1009.5 |
| 20260504200105 | 20 | 357 | 3.2 | 3.2 | 0.00 | 0.00 | 0.00 | 40 | 1009.5 |
| 20260504195601 | 20 | 134 | 1.6 | 1.6 | 0.00 | 0.00 | 0.00 | 40 | 1009.6 |
| 20260504195057 | 20 | 193 | 6.4 | 8.0 | 0.00 | 0.00 | 0.00 | 39 | 1009.7 |
| 20260504194554 | 20 | 256 | 3.2 | 8.0 | 0.00 | 0.00 | 0.00 | 40 | 1009.6 |
| 20260504194050 | 20 | 222 | 1.6 | 3.2 | 0.00 | 0.00 | 0.00 | 39 | 1009.6 |
| 20260504193547 | 19 | 222 | 0.0 | 0.0 | 0.00 | 0.00 | 0.00 | 42 | 1009.7 |
| 20260504193045 | 19 | 189 | 4.8 | 4.8 | 0.00 | 0.00 | 0.00 | 41 | 1009.7 |
| 20260504192543 | 20 | 313 | 4.8 | 4.8 | 0.00 | 0.00 | 0.00 | 41 | 1009.8 |
| 20260504192041 | 20 | 257 | 1.6 | 3.2 | 0.00 | 0.00 | 0.00 | 40 | 1009.8 |
| 20260504191538 | 20 | 312 | 3.2 | 3.2 | 0.00 | 0.00 | 0.00 | 40 | 1009.8 |
| 20260504191034 | 19 | 231 | 3.2 | 3.2 | 0.00 | 0.00 | 0.00 | 39 | 1009.7 |
| 20260504190531 | 20 | 209 | 6.4 | 9.7 | 0.00 | 0.00 | 0.00 | 40 | 1009.8 |
| 20260504190027 | 20 | 266 | 8.0 | 9.7 | 0.00 | 0.00 | 0.00 | 40 | 1009.9 |
| 20260504185524 | 20 | 219 | 6.4 | 8.0 | 0.00 | 0.00 | 0.00 | 39 | 1009.9 |
| 20260504185021 | 20 | 267 | 1.6 | 3.2 | 0.00 | 0.00 | 0.00 | 40 | 1009.7 |
| 20260504184516 | 20 | 229 | 3.2 | 4.8 | 0.00 | 0.00 | 0.00 | 39 | 1010.0 |
| 20260504184012 | 20 | 197 | 4.8 | 8.0 | 0.00 | 0.00 | 0.00 | 39 | 1009.9 |
| 20260504183509 | 19 | 191 | 3.2 | 3.2 | 0.00 | 0.00 | 0.00 | 40 | 1010.1 |
| 20260504183008 | 19 | 174 | 8.0 | 11.3 | 0.00 | 0.00 | 0.00 | 41 | 1010.1 |
| 20260504182504 | 18 | 253 | 3.2 | 3.2 | 0.00 | 0.00 | 0.00 | 41 | 1010.1 |
| 20260504182001 | 18 | 224 | 4.8 | 8.0 | 0.00 | 0.00 | 0.00 | 41 | 1010.2 |
| 20260504181458 | 18 | 266 | 4.8 | 8.0 | 0.00 | 0.00 | 0.00 | 40 | 1010.3 |
| 20260504180956 | 18 | 241 | 1.6 | 1.6 | 0.00 | 0.00 | 0.00 | 41 | 1010.2 |
| 20260504180455 | 18 | 275 | 4.8 | 4.8 | 0.00 | 0.00 | 0.00 | 41 | 1010.2 |
| 20260504175953 | 20 | 339 | 4.8 | 4.8 | 0.00 | 0.00 | 0.00 | 39 | 1010.3 |
| 20260504175450 | 19 | 200 | 4.8 | 4.8 | 0.00 | 0.00 | 0.00 | 39 | 1010.6 |
| 20260504174947 | 19 | 245 | 3.2 | 3.2 | 0.00 | 0.00 | 0.00 | 39 | 1010.6 |
| 20260504174445 | 20 | 222 | 3.2 | 3.2 | 0.00 | 0.00 | 0.00 | 40 | 1010.7 |
| 20260504173942 | 20 | 177 | 9.7 | 11.3 | 0.00 | 0.00 | 0.00 | 37 | 1010.5 |
| 20260504173438 | 20 | 329 | 6.4 | 9.7 | 0.00 | 0.00 | 0.00 | 38 | 1010.8 |
| 20260504172936 | 20 | 300 | 1.6 | 1.6 | 0.00 | 0.00 | 0.00 | 38 | 1010.6 |
| 20260504172432 | 19 | 252 | 3.2 | 3.2 | 0.00 | 0.00 | 0.00 | 38 | 1010.7 |
| 20260504171929 | 19 | 250 | 3.2 | 3.2 | 0.00 | 0.00 | 0.00 | 38 | 1010.7 |
| 20260504171426 | 19 | 190 | 4.8 | 8.0 | 0.00 | 0.00 | 0.00 | 38 | 1010.7 |
| 20260504170923 | 18 | 230 | 8.0 | 9.7 | 0.00 | 0.00 | 0.00 | 39 | 1010.8 |
| 20260504170419 | 18 | 227 | 4.8 | 4.8 | 0.00 | 0.00 | 0.00 | 39 | 1010.9 |
| 20260504160338 | 17 | 256 | 3.2 | 4.8 | 0.00 | 0.00 | 0.00 | 41 | 1011.4 |
| 20260504150803 | 16 | 227 | 1.6 | 1.6 | 0.00 | 0.00 | 0.00 | 44 | 1012.1 |
| 20260504150259 | 16 | 222 | 3.2 | 3.2 | 0.00 | 0.00 | 0.00 | 43 | 1012.3 |
| 20260504141229 | 15 | 281 | 4.8 | 4.8 | 0.00 | 0.00 | 0.00 | 44 | 1012.5 |
| 20260504140726 | 15 | 240 | 4.8 | 4.8 | 0.00 | 0.00 | 0.00 | 47 | 1012.5 |
| 20260504140221 | 15 | 198 | 6.4 | 9.7 | 0.00 | 0.00 | 0.00 | 45 | 1012.7 |
| 20260504130650 | 13 | 286 | 4.8 | 4.8 | 0.00 | 0.00 | 0.00 | 48 | 1013.1 |
| 20260504130146 | 13 | 282 | 3.2 | 4.8 | 0.00 | 0.00 | 0.00 | 47 | 1013.0 |
| 20260504120110 | 10 | 291 | 3.2 | 3.2 | 0.00 | 0.00 | 0.00 | 54 | 1013.0 |
| 20260504110538 | 6 | 342 | 0.0 | 0.0 | 0.00 | 0.00 | 0.00 | 71 | 1013.1 |
| 20260504100454 | 5 | 346 | 0.0 | 0.0 | 0.00 | 0.00 | 0.00 | 72 | 1012.8 |
| 20260504081847 | 3 | 346 | 0.0 | 0.0 | 0.00 | 0.00 | 0.00 | 75 | 1012.8 |
| 20260504081343 | 4 | 346 | 0.0 | 0.0 | 0.00 | 0.00 | 0.00 | 75 | 1013.2 |
| 20260504080839 | 4 | 346 | 0.0 | 0.0 | 0.00 | 0.00 | 0.00 | 74 | 1013.1 |
| 20260504080337 | 4 | 346 | 0.0 | 0.0 | 0.00 | 0.00 | 0.00 | 74 | 1013.0 |
| 20260504070304 | 5 | 346 | 0.0 | 0.0 | 0.00 | 0.00 | 0.00 | 73 | 1012.8 |
| 20260504060224 | 5 | 340 | 0.0 | 0.0 | 0.00 | 0.00 | 0.00 | 73 | 1012.8 |
| 20260504050652 | 5 | 340 | 0.0 | 0.0 | 0.00 | 0.00 | 0.00 | 68 | 1012.6 |
| 20260504050149 | 5 | 340 | 0.0 | 0.0 | 0.00 | 0.00 | 0.00 | 68 | 1012.6 |
| 20260504045646 | 6 | 340 | 0.0 | 0.0 | 0.00 | 0.00 | 0.00 | 67 | 1012.8 |
| 20260504045146 | 6 | 340 | 0.0 | 0.0 | 0.00 | 0.00 | 0.00 | 67 | 1012.8 |
| 20260504044644 | 6 | 340 | 0.0 | 0.0 | 0.00 | 0.00 | 0.00 | 65 | 1012.7 |
| 20260504044141 | 6 | 340 | 0.0 | 0.0 | 0.00 | 0.00 | 0.00 | 66 | 1012.9 |
| 20260504043638 | 6 | 340 | 0.0 | 0.0 | 0.00 | 0.00 | 0.00 | 65 | 1012.7 |
| 20260504043135 | 6 | 346 | 0.0 | 0.0 | 0.00 | 0.00 | 0.00 | 65 | 1012.5 |
| 20260504042632 | 6 | 346 | 0.0 | 0.0 | 0.00 | 0.00 | 0.00 | 65 | 1012.7 |
| 20260504042129 | 6 | 346 | 0.0 | 0.0 | 0.00 | 0.00 | 0.00 | 66 | 1012.8 |
| 20260504041625 | 6 | 346 | 0.0 | 0.0 | 0.00 | 0.00 | 0.00 | 66 | 1012.8 |
| 20260504041121 | 6 | 346 | 0.0 | 0.0 | 0.00 | 0.00 | 0.00 | 65 | 1012.4 |
| 20260504040619 | 5 | 346 | 0.0 | 0.0 | 0.00 | 0.00 | 0.00 | 67 | 1012.5 |
| 20260504040115 | 5 | 346 | 0.0 | 1.6 | 0.00 | 0.00 | 0.00 | 67 | 1012.5 |
| 20260504035612 | 5 | 346 | 0.0 | 0.0 | 0.00 | 0.00 | 0.00 | 68 | 1012.3 |